Time,TemperatureF,DewpointF,PressureIn,WindDirection,WindDirectionDegrees,WindSpeedMPH,WindSpeedGustMPH,Humidity,HourlyPrecipIn,Conditions,Clouds,dailyrainin,SoftwareType,DateUTC
2013-02-04 00:01:00,51.6,30.4,29.91,SE,124,5.0,12.0,44,0.00,,---,0.00,VWS V14.00,2013-02-04 06:01:00,
2013-02-04 00:02:00,51.6,30.4,29.91,SSW,192,0.0,5.0,44,0.00,,---,0.00,VWS V14.00,2013-02-04 06:02:00,
2013-02-04 00:03:00,51.8,30.0,29.92,South,183,0.0,2.0,43,0.00,,---,0.00,VWS V14.00,2013-02-04 06:03:00,
2013-02-04 00:05:00,51.5,30.3,29.91,South,191,0.0,0.0,44,0.00,,---,0.00,VWS V14.00,2013-02-04 06:05:00,
2013-02-04 00:08:00,51.7,30.5,29.92,SE,146,4.0,5.0,44,0.00,,---,0.00,VWS V14.00,2013-02-04 06:08:00,
2013-02-04 00:09:00,51.5,30.3,29.91,SSE,162,1.0,10.0,44,0.00,,---,0.00,VWS V14.00,2013-02-04 06:09:00,
2013-02-04 00:10:00,51.5,30.3,29.91,SSW,204,3.0,7.0,44,0.00,,---,0.00,VWS V14.00,2013-02-04 06:10:00,
2013-02-04 00:12:00,51.5,30.3,29.91,South,179,7.0,11.0,44,0.00,,---,0.00,VWS V14.00,2013-02-04 06:12:00,
2013-02-04 00:14:00,51.5,30.3,29.91,South,191,0.0,1.0,44,0.00,,---,0.00,VWS V14.00,2013-02-04 06:14:00,
2013-02-04 00:17:00,51.4,30.8,29.91,ESE,115,6.0,9.0,45,0.00,,---,0.00,VWS V14.00,2013-02-04 06:17:00,
2013-02-04 00:19:00,51.4,30.8,29.91,SSE,160,0.0,1.0,45,0.00,,---,0.00,VWS V14.00,2013-02-04 06:19:00,
2013-02-04 00:20:00,51.4,30.2,29.91,SE,134,0.0,7.0,44,0.00,,---,0.00,VWS V14.00,2013-02-04 06:20:00,
2013-02-04 00:21:00,51.5,30.3,29.91,SE,146,5.0,12.0,44,0.00,,---,0.00,VWS V14.00,2013-02-04 06:21:00,
2013-02-04 00:26:00,51.4,30.2,29.91,SSE,154,0.0,10.0,44,0.00,,---,0.00,VWS V14.00,2013-02-04 06:26:00,
2013-02-04 00:31:00,51.3,30.7,29.91,SE,138,6.0,6.0,45,0.00,,---,0.00,VWS V14.00,2013-02-04 06:31:00,
2013-02-04 00:36:00,51.3,30.7,29.91,SE,146,0.0,0.0,45,0.00,,---,0.00,VWS V14.00,2013-02-04 06:36:00,
2013-02-04 00:42:00,51.3,30.7,29.91,SSE,150,0.0,0.0,45,0.00,,---,0.00,VWS V14.00,2013-02-04 06:42:00,
2013-02-04 00:47:00,51.2,30.6,29.91,SE,135,0.0,0.0,45,0.00,,---,0.00,VWS V14.00,2013-02-04 06:47:00,
2013-02-04 00:52:00,51.2,30.6,29.91,South,169,0.0,2.0,45,0.00,,---,0.00,VWS V14.00,2013-02-04 06:52:00,
2013-02-04 00:58:00,51.3,30.7,29.91,South,188,0.0,1.0,45,0.00,,---,0.00,VWS V14.00,2013-02-04 06:58:00,
2013-02-04 01:03:00,51.3,30.7,29.91,SE,136,0.0,0.0,45,0.00,,---,0.00,VWS V14.00,2013-02-04 07:03:00,
2013-02-04 01:08:00,51.2,30.6,29.91,South,189,0.0,0.0,45,0.00,,---,0.00,VWS V14.00,2013-02-04 07:08:00,
2013-02-04 01:14:00,51.2,31.1,29.91,South,189,0.0,0.0,46,0.00,,---,0.00,VWS V14.00,2013-02-04 07:14:00,
2013-02-04 01:19:00,51.2,31.1,29.91,South,188,0.0,3.0,46,0.00,,---,0.00,VWS V14.00,2013-02-04 07:19:00,
2013-02-04 01:25:00,51.2,31.1,29.90,SSW,205,0.0,0.0,46,0.00,,---,0.00,VWS V14.00,2013-02-04 07:25:00,
2013-02-04 01:30:00,51.2,31.1,29.90,South,186,0.0,0.0,46,0.00,,---,0.00,VWS V14.00,2013-02-04 07:30:00,
2013-02-04 01:35:00,51.2,31.1,29.90,South,173,0.0,3.0,46,0.00,,---,0.00,VWS V14.00,2013-02-04 07:35:00,
2013-02-04 01:41:00,51.1,31.1,29.90,South,178,0.0,0.0,46,0.00,,---,0.00,VWS V14.00,2013-02-04 07:41:00,
2013-02-04 01:46:00,51.1,31.1,29.90,South,169,0.0,3.0,46,0.00,,---,0.00,VWS V14.00,2013-02-04 07:46:00,
2013-02-04 01:51:00,51.1,31.1,29.90,SSE,153,2.0,3.0,46,0.00,,---,0.00,VWS V14.00,2013-02-04 07:51:00,
2013-02-04 01:57:00,51.0,31.0,29.89,South,184,2.0,4.0,46,0.00,,---,0.00,VWS V14.00,2013-02-04 07:57:00,
2013-02-04 02:02:00,51.1,31.6,29.89,South,191,0.0,1.0,47,0.00,,---,0.00,VWS V14.00,2013-02-04 08:02:00,
2013-02-04 02:08:00,51.2,31.1,29.89,ESE,115,11.0,11.0,46,0.00,,---,0.00,VWS V14.00,2013-02-04 08:08:00,
2013-02-04 02:13:00,51.2,31.7,29.88,South,181,3.0,9.0,47,0.00,,---,0.00,VWS V14.00,2013-02-04 08:13:00,
2013-02-04 02:18:00,51.4,31.3,29.88,East,91,1.0,11.0,46,0.00,,---,0.00,VWS V14.00,2013-02-04 08:18:00,
2013-02-04 02:23:00,51.3,31.8,29.88,SSW,197,0.0,9.0,47,0.00,,---,0.00,VWS V14.00,2013-02-04 08:23:00,
2013-02-04 02:28:00,51.2,31.7,29.88,SSW,211,9.0,9.0,47,0.00,,---,0.00,VWS V14.00,2013-02-04 08:28:00,
2013-02-04 02:33:00,51.2,31.7,29.88,South,173,3.0,3.0,47,0.00,,---,0.00,VWS V14.00,2013-02-04 08:33:00,
2013-02-04 02:38:00,51.1,31.6,29.88,SSE,147,0.0,2.0,47,0.00,,---,0.00,VWS V14.00,2013-02-04 08:38:00,
2013-02-04 02:43:00,51.2,31.7,29.87,SSE,168,0.0,10.0,47,0.00,,---,0.00,VWS V14.00,2013-02-04 08:43:00,
2013-02-04 02:49:00,51.3,31.8,29.87,South,182,0.0,4.0,47,0.00,,---,0.00,VWS V14.00,2013-02-04 08:49:00,
2013-02-04 02:54:00,51.4,31.9,29.87,SSW,202,0.0,4.0,47,0.00,,---,0.00,VWS V14.00,2013-02-04 08:54:00,
2013-02-04 02:59:00,51.5,32.0,29.86,South,191,4.0,12.0,47,0.00,,---,0.00,VWS V14.00,2013-02-04 08:59:00,
2013-02-04 03:04:00,51.7,32.1,29.86,South,173,0.0,5.0,47,0.00,,---,0.00,VWS V14.00,2013-02-04 09:04:00,
2013-02-04 03:10:00,51.7,32.1,29.86,SE,135,11.0,11.0,47,0.00,,---,0.00,VWS V14.00,2013-02-04 09:10:00,
2013-02-04 03:13:00,51.8,32.2,29.86,SE,141,0.0,7.0,47,0.00,,---,0.00,VWS V14.00,2013-02-04 09:13:00,
2013-02-04 03:15:00,51.8,32.2,29.86,SSW,204,3.0,9.0,47,0.00,,---,0.00,VWS V14.00,2013-02-04 09:15:00,
2013-02-04 03:21:00,51.8,32.2,29.86,South,191,6.0,6.0,47,0.00,,---,0.00,VWS V14.00,2013-02-04 09:21:00,
2013-02-04 03:27:00,51.9,32.3,29.85,South,187,0.0,6.0,47,0.00,,---,0.00,VWS V14.00,2013-02-04 09:27:00,
2013-02-04 03:32:00,51.9,31.8,29.85,South,184,2.0,7.0,46,0.00,,---,0.00,VWS V14.00,2013-02-04 09:32:00,
2013-02-04 03:37:00,52.1,32.0,29.85,SSE,148,4.0,10.0,46,0.00,,---,0.00,VWS V14.00,2013-02-04 09:37:00,
2013-02-04 03:42:00,52.3,32.2,29.84,ESE,106,3.0,7.0,46,0.00,,---,0.00,VWS V14.00,2013-02-04 09:42:00,
2013-02-04 03:47:00,52.3,32.2,29.84,SE,140,0.0,5.0,46,0.00,,---,0.00,VWS V14.00,2013-02-04 09:47:00,
2013-02-04 03:52:00,52.5,31.8,29.84,South,188,0.0,3.0,45,0.00,,---,0.00,VWS V14.00,2013-02-04 09:52:00,
2013-02-04 03:53:00,52.7,32.0,29.84,ESE,114,3.0,6.0,45,0.00,,---,0.00,VWS V14.00,2013-02-04 09:53:00,
2013-02-04 03:57:00,52.5,31.8,29.84,South,176,0.0,3.0,45,0.00,,---,0.00,VWS V14.00,2013-02-04 09:57:00,
2013-02-04 04:02:00,52.7,32.0,29.84,ESE,107,0.0,6.0,45,0.00,,---,0.00,VWS V14.00,2013-02-04 10:02:00,
2013-02-04 04:03:00,52.9,32.2,29.83,South,183,7.0,13.0,45,0.00,,---,0.00,VWS V14.00,2013-02-04 10:03:00,
2013-02-04 04:05:00,53.0,32.2,29.83,South,179,4.0,4.0,45,0.00,,---,0.00,VWS V14.00,2013-02-04 10:05:00,
2013-02-04 04:06:00,53.0,31.7,29.83,SSW,199,6.0,7.0,44,0.00,,---,0.00,VWS V14.00,2013-02-04 10:06:00,
2013-02-04 04:07:00,52.8,32.1,29.84,South,186,0.0,7.0,45,0.00,,---,0.00,VWS V14.00,2013-02-04 10:07:00,
2013-02-04 04:10:00,53.1,31.8,29.83,South,181,0.0,5.0,44,0.00,,---,0.00,VWS V14.00,2013-02-04 10:10:00,
2013-02-04 04:12:00,52.9,32.2,29.83,South,190,10.0,13.0,45,0.00,,---,0.00,VWS V14.00,2013-02-04 10:12:00,
2013-02-04 04:14:00,53.0,32.2,29.83,SSW,192,4.0,10.0,45,0.00,,---,0.00,VWS V14.00,2013-02-04 10:14:00,
2013-02-04 04:16:00,53.0,32.2,29.83,South,182,0.0,4.0,45,0.00,,---,0.00,VWS V14.00,2013-02-04 10:16:00,
2013-02-04 04:18:00,53.0,32.2,29.83,South,174,4.0,5.0,45,0.00,,---,0.00,VWS V14.00,2013-02-04 10:18:00,
2013-02-04 04:23:00,53.0,32.2,29.83,South,191,3.0,5.0,45,0.00,,---,0.00,VWS V14.00,2013-02-04 10:23:00,
2013-02-04 04:28:00,53.0,32.2,29.83,South,187,0.0,5.0,45,0.00,,---,0.00,VWS V14.00,2013-02-04 10:28:00,
2013-02-04 04:33:00,53.0,32.2,29.83,South,178,0.0,5.0,45,0.00,,---,0.00,VWS V14.00,2013-02-04 10:33:00,
2013-02-04 04:39:00,53.0,32.2,29.83,South,179,0.0,4.0,45,0.00,,---,0.00,VWS V14.00,2013-02-04 10:39:00,
2013-02-04 04:44:00,53.1,32.9,29.83,South,176,3.0,6.0,46,0.01,,---,0.01,VWS V14.00,2013-02-04 10:44:00,
2013-02-04 04:49:00,52.2,35.1,29.83,South,175,7.0,12.0,52,0.01,,---,0.01,VWS V14.00,2013-02-04 10:49:00,
2013-02-04 04:54:00,52.1,34.0,29.83,South,170,0.0,8.0,50,0.01,,---,0.01,VWS V14.00,2013-02-04 10:54:00,
2013-02-04 04:59:00,52.1,34.0,29.83,South,169,0.0,6.0,50,0.01,,---,0.01,VWS V14.00,2013-02-04 10:59:00,
2013-02-04 05:04:00,52.1,34.0,29.83,SSW,196,0.0,0.0,50,0.01,,---,0.01,VWS V14.00,2013-02-04 11:04:00,
2013-02-04 05:10:00,51.9,33.9,29.83,SSW,196,0.0,0.0,50,0.01,,---,0.01,VWS V14.00,2013-02-04 11:10:00,
2013-02-04 05:15:00,51.9,33.9,29.83,SSW,203,3.0,3.0,50,0.01,,---,0.01,VWS V14.00,2013-02-04 11:15:00,
2013-02-04 05:21:00,51.9,34.4,29.83,SE,145,3.0,3.0,51,0.01,,---,0.01,VWS V14.00,2013-02-04 11:21:00,
2013-02-04 05:26:00,51.8,34.3,29.82,SSW,193,4.0,6.0,51,0.01,,---,0.01,VWS V14.00,2013-02-04 11:26:00,
2013-02-04 05:31:00,51.8,34.3,29.82,South,169,0.0,3.0,51,0.01,,---,0.01,VWS V14.00,2013-02-04 11:31:00,
2013-02-04 05:37:00,51.8,33.8,29.82,SSW,197,0.0,6.0,50,0.01,,---,0.01,VWS V14.00,2013-02-04 11:37:00,
2013-02-04 05:42:00,51.9,33.9,29.82,South,186,0.0,3.0,50,0.01,,---,0.01,VWS V14.00,2013-02-04 11:42:00,
2013-02-04 05:47:00,52.1,34.0,29.82,South,184,0.0,1.0,50,0.00,,---,0.01,VWS V14.00,2013-02-04 11:47:00,
2013-02-04 05:52:00,52.1,34.0,29.82,SSW,205,0.0,2.0,50,0.00,,---,0.01,VWS V14.00,2013-02-04 11:52:00,
2013-02-04 05:58:00,52.1,34.0,29.82,SE,134,0.0,4.0,50,0.00,,---,0.01,VWS V14.00,2013-02-04 11:58:00,
2013-02-04 06:03:00,52.1,34.5,29.82,SSE,153,0.0,0.0,51,0.00,,---,0.01,VWS V14.00,2013-02-04 12:03:00,
2013-02-04 06:08:00,51.8,34.3,29.82,SSE,153,0.0,0.0,51,0.00,,---,0.01,VWS V14.00,2013-02-04 12:08:00,
2013-02-04 06:13:00,51.7,34.2,29.82,SSE,153,0.0,0.0,51,0.00,,---,0.01,VWS V14.00,2013-02-04 12:13:00,
2013-02-04 06:19:00,51.7,34.2,29.82,SSE,153,0.0,0.0,51,0.00,,---,0.01,VWS V14.00,2013-02-04 12:19:00,
2013-02-04 06:25:00,51.7,34.2,29.82,SSE,153,0.0,1.0,51,0.00,,---,0.01,VWS V14.00,2013-02-04 12:25:00,
2013-02-04 06:30:00,51.7,34.2,29.82,South,191,0.0,0.0,51,0.00,,---,0.01,VWS V14.00,2013-02-04 12:30:00,
2013-02-04 06:35:00,51.7,34.7,29.82,South,179,0.0,0.0,52,0.00,,---,0.01,VWS V14.00,2013-02-04 12:35:00,
2013-02-04 06:41:00,51.7,34.7,29.82,South,188,0.0,0.0,52,0.00,,---,0.01,VWS V14.00,2013-02-04 12:41:00,
2013-02-04 06:47:00,51.8,35.2,29.82,South,188,0.0,0.0,53,0.00,,---,0.01,VWS V14.00,2013-02-04 12:47:00,
2013-02-04 06:52:00,51.7,34.7,29.82,South,184,0.0,0.0,52,0.00,,---,0.01,VWS V14.00,2013-02-04 12:52:00,
2013-02-04 06:57:00,51.8,34.8,29.82,South,180,0.0,0.0,52,0.00,,---,0.01,VWS V14.00,2013-02-04 12:57:00,
2013-02-04 07:02:00,51.8,35.2,29.82,South,176,0.0,4.0,53,0.00,,---,0.01,VWS V14.00,2013-02-04 13:02:00,
2013-02-04 07:08:00,51.7,35.1,29.82,South,176,0.0,0.0,53,0.00,,---,0.01,VWS V14.00,2013-02-04 13:08:00,
2013-02-04 07:14:00,51.8,35.2,29.82,South,176,0.0,0.0,53,0.00,,---,0.01,VWS V14.00,2013-02-04 13:14:00,
2013-02-04 07:20:00,51.9,35.3,29.82,South,172,0.0,2.0,53,0.00,,---,0.01,VWS V14.00,2013-02-04 13:20:00,
2013-02-04 07:25:00,52.0,35.4,29.83,South,172,0.0,0.0,53,0.00,,---,0.01,VWS V14.00,2013-02-04 13:25:00,
2013-02-04 07:30:00,52.1,35.5,29.83,South,170,0.0,0.0,53,0.00,,---,0.01,VWS V14.00,2013-02-04 13:30:00,
2013-02-04 07:35:00,52.1,35.5,29.83,South,169,0.0,0.0,53,0.00,,---,0.01,VWS V14.00,2013-02-04 13:35:00,
2013-02-04 07:40:00,52.3,35.7,29.83,South,169,0.0,0.0,53,0.00,,---,0.01,VWS V14.00,2013-02-04 13:40:00,
2013-02-04 07:45:00,52.4,35.3,29.83,SSE,168,0.0,0.0,52,0.00,,---,0.01,VWS V14.00,2013-02-04 13:45:00,
2013-02-04 07:50:00,52.4,35.3,29.83,South,170,0.0,0.0,52,0.00,,---,0.01,VWS V14.00,2013-02-04 13:50:00,
2013-02-04 07:55:00,52.5,35.4,29.84,South,174,0.0,0.0,52,0.00,,---,0.01,VWS V14.00,2013-02-04 13:55:00,
2013-02-04 08:00:00,52.7,35.6,29.84,South,188,0.0,0.0,52,0.00,,---,0.01,VWS V14.00,2013-02-04 14:00:00,
2013-02-04 08:05:00,52.8,35.2,29.84,South,185,0.0,0.0,51,0.00,,---,0.01,VWS V14.00,2013-02-04 14:05:00,
2013-02-04 08:10:00,52.7,35.6,29.84,SE,130,0.0,0.0,52,0.00,,---,0.01,VWS V14.00,2013-02-04 14:10:00,
2013-02-04 08:16:00,52.7,35.6,29.84,SSE,161,0.0,0.0,52,0.00,,---,0.01,VWS V14.00,2013-02-04 14:16:00,
2013-02-04 08:21:00,52.8,35.7,29.84,SSE,162,0.0,0.0,52,0.00,,---,0.01,VWS V14.00,2013-02-04 14:21:00,
2013-02-04 08:26:00,52.8,35.7,29.84,SSE,162,0.0,0.0,52,0.00,,---,0.01,VWS V14.00,2013-02-04 14:26:00,
2013-02-04 08:31:00,52.9,35.8,29.84,SSE,162,0.0,0.0,52,0.00,,---,0.01,VWS V14.00,2013-02-04 14:31:00,
2013-02-04 08:36:00,52.9,35.8,29.84,SSE,160,0.0,1.0,52,0.00,,---,0.01,VWS V14.00,2013-02-04 14:36:00,
2013-02-04 08:41:00,52.9,36.2,29.85,SSE,160,0.0,0.0,53,0.00,,---,0.01,VWS V14.00,2013-02-04 14:41:00,
2013-02-04 08:46:00,52.9,36.2,29.85,SSE,160,0.0,0.0,53,0.00,,---,0.01,VWS V14.00,2013-02-04 14:46:00,
2013-02-04 08:52:00,53.0,36.3,29.85,SSE,149,2.0,2.0,53,0.00,,---,0.01,VWS V14.00,2013-02-04 14:52:00,
2013-02-04 08:58:00,53.3,36.6,29.86,SSE,149,0.0,0.0,53,0.00,,---,0.01,VWS V14.00,2013-02-04 14:58:00,
2013-02-04 09:03:00,53.6,36.9,29.86,SSE,149,0.0,0.0,53,0.00,,---,0.01,VWS V14.00,2013-02-04 15:03:00,
2013-02-04 09:08:00,53.8,37.6,29.86,SSE,149,0.0,0.0,54,0.00,,---,0.01,VWS V14.00,2013-02-04 15:08:00,
2013-02-04 09:14:00,54.1,37.4,29.87,SSE,149,0.0,0.0,53,0.00,,---,0.01,VWS V14.00,2013-02-04 15:14:00,
2013-02-04 09:19:00,54.4,37.6,29.87,SSE,149,0.0,0.0,53,0.00,,---,0.01,VWS V14.00,2013-02-04 15:19:00,
2013-02-04 09:25:00,54.9,38.6,29.87,WSW,248,0.0,4.0,54,0.00,,---,0.01,VWS V14.00,2013-02-04 15:25:00,
2013-02-04 09:30:00,55.2,38.9,29.87,South,186,0.0,0.0,54,0.00,,---,0.01,VWS V14.00,2013-02-04 15:30:00,
2013-02-04 09:36:00,55.5,39.1,29.87,WSW,242,5.0,5.0,54,0.00,,---,0.01,VWS V14.00,2013-02-04 15:36:00,
2013-02-04 09:42:00,55.5,38.7,29.87,SSW,212,0.0,2.0,53,0.00,,---,0.01,VWS V14.00,2013-02-04 15:42:00,
2013-02-04 09:47:00,55.5,39.1,29.87,SSW,210,0.0,0.0,54,0.00,,---,0.01,VWS V14.00,2013-02-04 15:47:00,
2013-02-04 09:52:00,56.0,39.1,29.87,SW,218,0.0,0.0,53,0.00,,---,0.01,VWS V14.00,2013-02-04 15:52:00,
2013-02-04 09:57:00,56.9,40.0,29.87,SSW,198,3.0,3.0,53,0.00,,---,0.01,VWS V14.00,2013-02-04 15:57:00,
2013-02-04 10:02:00,57.0,39.6,29.87,SW,220,5.0,6.0,52,0.00,,---,0.01,VWS V14.00,2013-02-04 16:02:00,
2013-02-04 10:07:00,56.8,39.4,29.87,SW,231,0.0,6.0,52,0.00,,---,0.01,VWS V14.00,2013-02-04 16:07:00,
2013-02-04 10:12:00,57.3,39.8,29.88,SW,226,0.0,1.0,52,0.00,,---,0.01,VWS V14.00,2013-02-04 16:12:00,
2013-02-04 10:17:00,58.1,40.1,29.88,South,191,6.0,6.0,51,0.00,,---,0.01,VWS V14.00,2013-02-04 16:17:00,
2013-02-04 10:22:00,58.9,40.8,29.88,SSW,205,0.0,4.0,51,0.00,,---,0.01,VWS V14.00,2013-02-04 16:22:00,
2013-02-04 10:27:00,59.1,40.5,29.87,South,177,0.0,1.0,50,0.00,,---,0.01,VWS V14.00,2013-02-04 16:27:00,
2013-02-04 10:33:00,58.9,40.3,29.87,West,261,4.0,7.0,50,0.00,,---,0.01,VWS V14.00,2013-02-04 16:33:00,
2013-02-04 10:38:00,59.3,40.7,29.87,WSW,237,9.0,11.0,50,0.00,,---,0.01,VWS V14.00,2013-02-04 16:38:00,
2013-02-04 10:43:00,58.9,39.8,29.88,West,266,0.0,5.0,49,0.00,,---,0.01,VWS V14.00,2013-02-04 16:43:00,
2013-02-04 10:49:00,59.4,40.2,29.88,West,259,2.0,7.0,49,0.00,,---,0.01,VWS V14.00,2013-02-04 16:49:00,
2013-02-04 10:54:00,59.7,40.5,29.88,SSE,165,0.0,4.0,49,0.00,,---,0.01,VWS V14.00,2013-02-04 16:54:00,
2013-02-04 10:59:00,60.8,40.5,29.87,WNW,285,0.0,4.0,47,0.00,,---,0.01,VWS V14.00,2013-02-04 16:59:00,
2013-02-04 11:05:00,60.4,40.6,29.87,WNW,295,0.0,0.0,48,0.00,,---,0.01,VWS V14.00,2013-02-04 17:05:00,
2013-02-04 11:11:00,61.4,41.6,29.87,SW,230,1.0,4.0,48,0.00,,---,0.01,VWS V14.00,2013-02-04 17:11:00,
2013-02-04 11:16:00,61.4,40.5,29.87,West,265,4.0,4.0,46,0.00,,---,0.01,VWS V14.00,2013-02-04 17:16:00,
2013-02-04 11:21:00,61.4,41.0,29.87,West,270,0.0,0.0,47,0.00,,---,0.01,VWS V14.00,2013-02-04 17:21:00,
2013-02-04 11:27:00,61.5,40.5,29.86,WSW,238,0.0,8.0,46,0.00,,---,0.01,VWS V14.00,2013-02-04 17:27:00,
2013-02-04 11:33:00,62.4,41.4,29.86,West,264,1.0,8.0,46,0.00,,---,0.01,VWS V14.00,2013-02-04 17:33:00,
2013-02-04 11:39:00,62.0,39.9,29.86,South,181,4.0,11.0,44,0.00,,---,0.01,VWS V14.00,2013-02-04 17:39:00,
2013-02-04 11:44:00,61.9,39.2,29.85,WSW,245,1.0,9.0,43,0.00,,---,0.01,VWS V14.00,2013-02-04 17:44:00,
2013-02-04 11:49:00,61.7,39.6,29.85,West,259,8.0,10.0,44,0.00,,---,0.01,VWS V14.00,2013-02-04 17:49:00,
2013-02-04 11:54:00,62.1,40.0,29.85,SSW,197,0.0,6.0,44,0.00,,---,0.01,VWS V14.00,2013-02-04 17:54:00,
2013-02-04 11:59:00,62.9,40.1,29.85,West,269,0.0,6.0,43,0.00,,---,0.01,VWS V14.00,2013-02-04 17:59:00,
2013-02-04 12:04:00,63.3,39.8,29.85,SSW,210,1.0,6.0,42,0.00,,---,0.01,VWS V14.00,2013-02-04 18:04:00,
2013-02-04 12:10:00,63.2,39.1,29.84,WNW,284,0.0,5.0,41,0.00,,---,0.01,VWS V14.00,2013-02-04 18:10:00,
2013-02-04 12:15:00,63.1,40.3,29.84,WNW,289,0.0,0.0,43,0.00,,---,0.01,VWS V14.00,2013-02-04 18:15:00,
2013-02-04 12:21:00,63.7,39.0,29.84,SW,218,0.0,3.0,40,0.00,,---,0.01,VWS V14.00,2013-02-04 18:21:00,
2013-02-04 12:26:00,63.9,39.8,29.84,SW,222,4.0,6.0,41,0.00,,---,0.01,VWS V14.00,2013-02-04 18:26:00,
2013-02-04 12:31:00,64.3,39.5,29.84,SSW,210,0.0,0.0,40,0.00,,---,0.01,VWS V14.00,2013-02-04 18:31:00,
2013-02-04 12:36:00,64.6,39.1,29.84,WNW,285,0.0,2.0,39,0.00,,---,0.01,VWS V14.00,2013-02-04 18:36:00,
2013-02-04 12:42:00,64.9,38.7,29.83,WSW,251,0.0,0.0,38,0.00,,---,0.01,VWS V14.00,2013-02-04 18:42:00,
2013-02-04 12:48:00,65.0,38.8,29.83,WNW,286,0.0,0.0,38,0.00,,---,0.01,VWS V14.00,2013-02-04 18:48:00,
2013-02-04 12:53:00,65.0,38.1,29.83,NW,312,0.0,0.0,37,0.00,,---,0.01,VWS V14.00,2013-02-04 18:53:00,
2013-02-04 12:58:00,66.3,39.3,29.83,WNW,283,3.0,10.0,37,0.00,,---,0.01,VWS V14.00,2013-02-04 18:58:00,
2013-02-04 13:04:00,65.0,38.1,29.83,West,267,0.0,0.0,37,0.00,,---,0.01,VWS V14.00,2013-02-04 19:04:00,
2013-02-04 13:09:00,65.1,38.2,29.83,North,356,2.0,2.0,37,0.00,,---,0.01,VWS V14.00,2013-02-04 19:09:00,
2013-02-04 13:14:00,65.2,37.6,29.83,West,276,0.0,0.0,36,0.00,,---,0.01,VWS V14.00,2013-02-04 19:14:00,
2013-02-04 13:19:00,65.9,38.2,29.83,NE,44,0.0,5.0,36,0.00,,---,0.01,VWS V14.00,2013-02-04 19:19:00,
2013-02-04 13:25:00,66.2,38.5,29.82,North,11,8.0,9.0,36,0.00,,---,0.01,VWS V14.00,2013-02-04 19:25:00,
2013-02-04 13:30:00,66.0,37.6,29.82,NNE,17,0.0,0.0,35,0.00,,---,0.01,VWS V14.00,2013-02-04 19:30:00,
2013-02-04 13:35:00,66.1,36.2,29.82,North,6,0.0,3.0,33,0.00,,---,0.01,VWS V14.00,2013-02-04 19:35:00,
2013-02-04 13:40:00,66.2,36.3,29.82,North,11,1.0,6.0,33,0.00,,---,0.01,VWS V14.00,2013-02-04 19:40:00,
2013-02-04 13:46:00,66.0,36.8,29.82,North,10,0.0,0.0,34,0.00,,---,0.01,VWS V14.00,2013-02-04 19:46:00,
2013-02-04 13:51:00,66.3,36.4,29.82,North,8,0.0,4.0,33,0.00,,---,0.01,VWS V14.00,2013-02-04 19:51:00,
2013-02-04 13:56:00,66.1,36.2,29.82,NW,319,0.0,0.0,33,0.00,,---,0.01,VWS V14.00,2013-02-04 19:56:00,
2013-02-04 14:01:00,67.2,36.4,29.82,West,276,5.0,7.0,32,0.00,,---,0.01,VWS V14.00,2013-02-04 20:01:00,
2013-02-04 14:06:00,66.7,35.9,29.82,NNE,24,4.0,4.0,32,0.00,,---,0.01,VWS V14.00,2013-02-04 20:06:00,
2013-02-04 14:11:00,66.8,35.2,29.81,NNE,15,0.0,2.0,31,0.00,,---,0.01,VWS V14.00,2013-02-04 20:11:00,
2013-02-04 14:16:00,66.5,34.1,29.81,NNE,20,0.0,1.0,30,0.00,,---,0.01,VWS V14.00,2013-02-04 20:16:00,
2013-02-04 14:21:00,66.9,35.3,29.81,NNE,15,0.0,7.0,31,0.00,,---,0.01,VWS V14.00,2013-02-04 20:21:00,
2013-02-04 14:27:00,66.7,35.1,29.81,NNE,22,0.0,2.0,31,0.00,,---,0.01,VWS V14.00,2013-02-04 20:27:00,
2013-02-04 14:32:00,67.2,33.9,29.81,NNE,33,0.0,11.0,29,0.00,,---,0.01,VWS V14.00,2013-02-04 20:32:00,
2013-02-04 14:38:00,66.8,33.5,29.81,NNE,19,3.0,10.0,29,0.00,,---,0.01,VWS V14.00,2013-02-04 20:38:00,
2013-02-04 14:43:00,66.1,33.8,29.81,NE,41,1.0,13.0,30,0.00,,---,0.01,VWS V14.00,2013-02-04 20:43:00,
2013-02-04 14:48:00,66.2,34.7,29.81,NNE,20,0.0,2.0,31,0.00,,---,0.01,VWS V14.00,2013-02-04 20:48:00,
2013-02-04 14:53:00,66.8,34.4,29.81,NNE,21,0.0,0.0,30,0.00,,---,0.01,VWS V14.00,2013-02-04 20:53:00,
2013-02-04 14:58:00,66.9,34.5,29.81,North,11,1.0,7.0,30,0.00,,---,0.01,VWS V14.00,2013-02-04 20:58:00,
2013-02-04 15:04:00,66.4,34.0,29.81,NE,36,0.0,0.0,30,0.00,,---,0.01,VWS V14.00,2013-02-04 21:04:00,
2013-02-04 15:09:00,66.8,32.7,29.81,NE,34,0.0,8.0,28,0.00,,---,0.01,VWS V14.00,2013-02-04 21:09:00,
2013-02-04 15:14:00,66.4,30.5,29.82,North,3,0.0,10.0,26,0.00,,---,0.01,VWS V14.00,2013-02-04 21:14:00,
2013-02-04 15:20:00,65.8,32.7,29.82,North,1,3.0,12.0,29,0.00,,---,0.01,VWS V14.00,2013-02-04 21:20:00,
2013-02-04 15:25:00,65.7,31.7,29.82,NE,34,0.0,6.0,28,0.00,,---,0.01,VWS V14.00,2013-02-04 21:25:00,
2013-02-04 15:30:00,65.9,31.9,29.82,North,1,1.0,15.0,28,0.00,,---,0.01,VWS V14.00,2013-02-04 21:30:00,
2013-02-04 15:35:00,65.7,32.6,29.82,NNE,28,6.0,6.0,29,0.00,,---,0.01,VWS V14.00,2013-02-04 21:35:00,
2013-02-04 15:41:00,65.0,32.8,29.83,North,1,11.0,12.0,30,0.00,,---,0.01,VWS V14.00,2013-02-04 21:41:00,
2013-02-04 15:47:00,65.1,32.1,29.83,North,1,0.0,6.0,29,0.00,,---,0.01,VWS V14.00,2013-02-04 21:47:00,
2013-02-04 15:52:00,65.2,33.0,29.83,North,7,13.0,13.0,30,0.00,,---,0.01,VWS V14.00,2013-02-04 21:52:00,
2013-02-04 15:57:00,65.0,32.0,29.83,NE,46,1.0,11.0,29,0.00,,---,0.01,VWS V14.00,2013-02-04 21:57:00,
2013-02-04 16:02:00,64.7,30.9,29.83,North,1,1.0,12.0,28,0.00,,---,0.01,VWS V14.00,2013-02-04 22:02:00,
2013-02-04 16:08:00,64.9,31.9,29.83,NNE,21,7.0,7.0,29,0.00,,---,0.01,VWS V14.00,2013-02-04 22:08:00,
2013-02-04 16:13:00,65.4,31.5,29.84,NNE,20,5.0,9.0,28,0.00,,---,0.01,VWS V14.00,2013-02-04 22:13:00,
2013-02-04 16:18:00,65.1,32.1,29.84,NE,56,1.0,5.0,29,0.00,,---,0.01,VWS V14.00,2013-02-04 22:18:00,
2013-02-04 16:24:00,64.9,31.0,29.84,NNE,26,9.0,13.0,28,0.00,,---,0.01,VWS V14.00,2013-02-04 22:24:00,
2013-02-04 16:29:00,64.5,31.6,29.84,North,1,10.0,13.0,29,0.00,,---,0.01,VWS V14.00,2013-02-04 22:29:00,
2013-02-04 16:35:00,63.9,32.7,29.84,NE,39,11.0,11.0,31,0.00,,---,0.01,VWS V14.00,2013-02-04 22:35:00,
2013-02-04 16:40:00,63.8,32.6,29.85,NE,34,5.0,9.0,31,0.00,,---,0.01,VWS V14.00,2013-02-04 22:40:00,
2013-02-04 16:46:00,63.4,31.5,29.85,North,10,9.0,11.0,30,0.00,,---,0.01,VWS V14.00,2013-02-04 22:46:00,
2013-02-04 16:51:00,63.2,32.1,29.85,North,11,0.0,1.0,31,0.00,,---,0.01,VWS V14.00,2013-02-04 22:51:00,
2013-02-04 16:56:00,63.5,32.3,29.85,NNE,33,0.0,3.0,31,0.00,,---,0.01,VWS V14.00,2013-02-04 22:56:00,
2013-02-04 17:01:00,63.1,32.8,29.85,NE,38,0.0,4.0,32,0.00,,---,0.01,VWS V14.00,2013-02-04 23:01:00,
2013-02-04 17:06:00,62.7,33.2,29.85,North,3,2.0,9.0,33,0.00,,---,0.01,VWS V14.00,2013-02-04 23:06:00,
2013-02-04 17:11:00,62.4,33.7,29.85,NE,36,12.0,14.0,34,0.00,,---,0.01,VWS V14.00,2013-02-04 23:11:00,
2013-02-04 17:16:00,62.1,33.4,29.85,NNE,28,1.0,11.0,34,0.00,,---,0.01,VWS V14.00,2013-02-04 23:16:00,
2013-02-04 17:21:00,61.9,33.2,29.85,North,11,4.0,8.0,34,0.00,,---,0.01,VWS V14.00,2013-02-04 23:21:00,
2013-02-04 17:26:00,61.7,33.8,29.86,NE,56,0.0,5.0,35,0.00,,---,0.01,VWS V14.00,2013-02-04 23:26:00,
2013-02-04 17:31:00,61.5,33.6,29.86,NE,39,6.0,6.0,35,0.00,,---,0.01,VWS V14.00,2013-02-04 23:31:00,
2013-02-04 17:36:00,61.2,34.1,29.86,NE,41,0.0,5.0,36,0.00,,---,0.01,VWS V14.00,2013-02-04 23:36:00,
2013-02-04 17:41:00,60.8,34.4,29.86,North,11,0.0,4.0,37,0.00,,---,0.01,VWS V14.00,2013-02-04 23:41:00,
2013-02-04 17:47:00,60.5,34.1,29.86,NE,37,0.0,3.0,37,0.00,,---,0.01,VWS V14.00,2013-02-04 23:47:00,
2013-02-04 17:52:00,60.2,34.5,29.86,NNE,16,0.0,2.0,38,0.00,,---,0.01,VWS V14.00,2013-02-04 23:52:00,
2013-02-04 17:57:00,59.8,34.2,29.87,NNE,18,2.0,3.0,38,0.00,,---,0.01,VWS V14.00,2013-02-04 23:57:00,
2013-02-04 18:03:00,59.4,33.8,29.87,NNE,30,6.0,7.0,38,0.00,,---,0.01,VWS V14.00,2013-02-05 00:03:00,
2013-02-04 18:08:00,59.1,33.5,29.87,North,356,6.0,9.0,38,0.00,,---,0.01,VWS V14.00,2013-02-05 00:08:00,
2013-02-04 18:13:00,58.9,33.4,29.88,NNE,29,4.0,6.0,38,0.00,,---,0.01,VWS V14.00,2013-02-05 00:13:00,
2013-02-04 18:18:00,58.7,33.8,29.88,North,4,3.0,3.0,39,0.00,,---,0.01,VWS V14.00,2013-02-05 00:18:00,
2013-02-04 18:23:00,58.3,33.5,29.88,NE,40,0.0,7.0,39,0.00,,---,0.01,VWS V14.00,2013-02-05 00:23:00,
2013-02-04 18:28:00,58.1,33.9,29.89,NNE,27,0.0,0.0,40,0.00,,---,0.01,VWS V14.00,2013-02-05 00:28:00,
2013-02-04 18:34:00,57.8,34.3,29.89,NNE,25,0.0,0.0,41,0.00,,---,0.01,VWS V14.00,2013-02-05 00:34:00,
2013-02-04 18:39:00,57.5,34.0,29.89,NE,35,0.0,0.0,41,0.00,,---,0.01,VWS V14.00,2013-02-05 00:39:00,
2013-02-04 18:44:00,57.4,34.5,29.89,NNE,13,1.0,3.0,42,0.00,,---,0.01,VWS V14.00,2013-02-05 00:44:00,
2013-02-04 18:49:00,57.2,34.3,29.89,NNE,32,0.0,0.0,42,0.00,,---,0.01,VWS V14.00,2013-02-05 00:49:00,
2013-02-04 18:54:00,57.1,34.2,29.89,NNE,31,0.0,0.0,42,0.00,,---,0.01,VWS V14.00,2013-02-05 00:54:00,
2013-02-04 19:00:00,56.9,34.7,29.89,NE,41,0.0,3.0,43,0.00,,---,0.01,VWS V14.00,2013-02-05 01:00:00,
2013-02-04 19:06:00,56.7,34.5,29.89,NE,37,0.0,0.0,43,0.00,,---,0.01,VWS V14.00,2013-02-05 01:06:00,
2013-02-04 19:11:00,56.6,34.4,29.90,NNE,28,3.0,4.0,43,0.00,,---,0.01,VWS V14.00,2013-02-05 01:11:00,
2013-02-04 19:16:00,56.4,34.2,29.90,NNE,31,1.0,2.0,43,0.00,,---,0.01,VWS V14.00,2013-02-05 01:16:00,
2013-02-04 19:21:00,56.2,34.6,29.90,NE,36,0.0,3.0,44,0.00,,---,0.01,VWS V14.00,2013-02-05 01:21:00,
2013-02-04 19:27:00,55.9,34.3,29.90,NNE,23,0.0,4.0,44,0.00,,---,0.01,VWS V14.00,2013-02-05 01:27:00,
2013-02-04 19:32:00,55.7,34.7,29.90,NE,34,2.0,6.0,45,0.00,,---,0.01,VWS V14.00,2013-02-05 01:32:00,
2013-02-04 19:37:00,55.5,34.5,29.90,North,1,1.0,2.0,45,0.00,,---,0.01,VWS V14.00,2013-02-05 01:37:00,
2013-02-04 19:43:00,55.2,34.2,29.91,NE,40,3.0,12.0,45,0.00,,---,0.01,VWS V14.00,2013-02-05 01:43:00,
2013-02-04 19:48:00,55.0,34.6,29.91,NE,34,7.0,7.0,46,0.00,,---,0.01,VWS V14.00,2013-02-05 01:48:00,
2013-02-04 19:53:00,54.8,34.4,29.91,North,9,1.0,5.0,46,0.00,,---,0.01,VWS V14.00,2013-02-05 01:53:00,
2013-02-04 19:58:00,54.6,34.2,29.91,NNE,20,0.0,4.0,46,0.00,,---,0.01,VWS V14.00,2013-02-05 01:58:00,
2013-02-04 20:03:00,54.3,34.5,29.91,NNE,13,0.0,5.0,47,0.00,,---,0.01,VWS V14.00,2013-02-05 02:03:00,
2013-02-04 20:08:00,54.1,34.3,29.91,NE,38,0.0,10.0,47,0.00,,---,0.01,VWS V14.00,2013-02-05 02:08:00,
2013-02-04 20:13:00,53.8,34.1,29.92,NE,35,0.0,3.0,47,0.00,,---,0.01,VWS V14.00,2013-02-05 02:13:00,
2013-02-04 20:18:00,53.7,34.0,29.92,North,1,3.0,8.0,47,0.00,,---,0.01,VWS V14.00,2013-02-05 02:18:00,
2013-02-04 20:24:00,53.5,34.3,29.92,NE,47,2.0,9.0,48,0.00,,---,0.01,VWS V14.00,2013-02-05 02:24:00,
2013-02-04 20:29:00,53.3,34.1,29.92,ENE,65,1.0,7.0,48,0.00,,---,0.01,VWS V14.00,2013-02-05 02:29:00,
2013-02-04 20:34:00,53.1,34.5,29.92,NNE,26,0.0,5.0,49,0.00,,---,0.01,VWS V14.00,2013-02-05 02:34:00,
2013-02-04 20:39:00,52.8,34.7,29.92,NE,48,0.0,6.0,50,0.00,,---,0.01,VWS V14.00,2013-02-05 02:39:00,
2013-02-04 20:44:00,52.6,34.5,29.92,NNE,29,5.0,7.0,50,0.00,,---,0.01,VWS V14.00,2013-02-05 02:44:00,
2013-02-04 20:49:00,52.3,34.2,29.92,NNE,25,2.0,7.0,50,0.00,,---,0.01,VWS V14.00,2013-02-05 02:49:00,
2013-02-04 20:54:00,52.0,34.5,29.92,NNE,27,7.0,9.0,51,0.00,,---,0.01,VWS V14.00,2013-02-05 02:54:00,
2013-02-04 21:00:00,51.8,34.3,29.93,NE,45,0.0,9.0,51,0.00,,---,0.01,VWS V14.00,2013-02-05 03:00:00,
2013-02-04 21:05:00,51.6,34.6,29.93,NNE,29,0.0,6.0,52,0.00,,---,0.01,VWS V14.00,2013-02-05 03:05:00,
2013-02-04 21:11:00,51.4,34.9,29.93,NNE,27,6.0,10.0,53,0.00,,---,0.01,VWS V14.00,2013-02-05 03:11:00,
2013-02-04 21:17:00,51.1,34.6,29.93,NNE,32,0.0,4.0,53,0.00,,---,0.01,VWS V14.00,2013-02-05 03:17:00,
2013-02-04 21:23:00,50.8,34.8,29.93,NNE,12,0.0,7.0,54,0.00,,---,0.01,VWS V14.00,2013-02-05 03:23:00,
2013-02-04 21:29:00,50.6,35.0,29.93,NE,36,0.0,0.0,55,0.00,,---,0.01,VWS V14.00,2013-02-05 03:29:00,
2013-02-04 21:34:00,50.4,34.9,29.93,NNE,27,0.0,2.0,55,0.00,,---,0.01,VWS V14.00,2013-02-05 03:34:00,
2013-02-04 21:40:00,50.1,35.0,29.93,NE,37,0.0,1.0,56,0.00,,---,0.01,VWS V14.00,2013-02-05 03:40:00,
2013-02-04 21:45:00,49.9,34.8,29.93,NE,37,0.0,0.0,56,0.00,,---,0.01,VWS V14.00,2013-02-05 03:45:00,
2013-02-04 21:50:00,49.7,35.1,29.93,NE,37,0.0,0.0,57,0.00,,---,0.01,VWS V14.00,2013-02-05 03:50:00,
2013-02-04 21:55:00,49.5,34.9,29.94,NE,37,0.0,0.0,57,0.00,,---,0.01,VWS V14.00,2013-02-05 03:55:00,
2013-02-04 22:00:00,49.2,34.6,29.94,NE,37,0.0,0.0,57,0.00,,---,0.01,VWS V14.00,2013-02-05 04:00:00,
2013-02-04 22:05:00,49.0,34.9,29.94,NE,37,0.0,0.0,58,0.00,,---,0.01,VWS V14.00,2013-02-05 04:05:00,
2013-02-04 22:11:00,48.7,34.6,29.94,NE,37,0.0,0.0,58,0.00,,---,0.01,VWS V14.00,2013-02-05 04:11:00,
2013-02-04 22:16:00,48.5,34.8,29.94,NE,37,0.0,0.0,59,0.00,,---,0.01,VWS V14.00,2013-02-05 04:16:00,
2013-02-04 22:21:00,48.3,34.7,29.94,NE,37,0.0,0.0,59,0.00,,---,0.01,VWS V14.00,2013-02-05 04:21:00,
2013-02-04 22:26:00,47.8,34.6,29.94,NE,37,0.0,0.0,60,0.00,,---,0.01,VWS V14.00,2013-02-05 04:26:00,
2013-02-04 22:31:00,47.6,34.8,29.94,NE,37,0.0,0.0,61,0.00,,---,0.01,VWS V14.00,2013-02-05 04:31:00,
2013-02-04 22:36:00,47.4,34.6,29.94,NE,37,0.0,0.0,61,0.00,,---,0.01,VWS V14.00,2013-02-05 04:36:00,
2013-02-04 22:42:00,47.3,34.5,29.94,NE,37,0.0,0.0,61,0.00,,---,0.01,VWS V14.00,2013-02-05 04:42:00,
2013-02-04 22:47:00,47.3,34.5,29.94,NE,37,0.0,0.0,61,0.00,,---,0.01,VWS V14.00,2013-02-05 04:47:00,
2013-02-04 22:50:00,47.0,34.7,29.95,NE,37,0.0,0.0,62,0.00,,---,0.01,VWS V14.00,2013-02-05 04:50:00,
2013-02-04 22:51:00,47.0,34.7,29.95,NE,37,0.0,0.0,62,0.00,,---,0.01,VWS V14.00,2013-02-05 04:51:00,
2013-02-04 22:52:00,47.0,34.7,29.95,NE,37,0.0,0.0,62,0.00,,---,0.01,VWS V14.00,2013-02-05 04:52:00,
2013-02-04 22:53:00,47.2,34.9,29.94,NE,37,0.0,0.0,62,0.00,,---,0.01,VWS V14.00,2013-02-05 04:53:00,
2013-02-04 22:54:00,46.9,34.6,29.95,NE,37,0.0,0.0,62,0.00,,---,0.01,VWS V14.00,2013-02-05 04:54:00,
2013-02-04 22:55:00,46.9,34.6,29.95,NE,37,0.0,1.0,62,0.00,,---,0.01,VWS V14.00,2013-02-05 04:55:00,
2013-02-04 22:56:00,46.8,34.5,29.95,NE,37,0.0,0.0,62,0.00,,---,0.01,VWS V14.00,2013-02-05 04:56:00,
2013-02-04 22:57:00,46.8,34.9,29.95,NE,37,0.0,0.0,63,0.00,,---,0.01,VWS V14.00,2013-02-05 04:57:00,
2013-02-04 22:58:00,47.1,34.8,29.95,NE,37,0.0,0.0,62,0.00,,---,0.01,VWS V14.00,2013-02-05 04:58:00,
2013-02-04 22:59:00,46.8,34.9,29.95,NE,37,0.0,0.0,63,0.00,,---,0.01,VWS V14.00,2013-02-05 04:59:00,
2013-02-04 23:00:00,46.8,34.9,29.96,NE,37,0.0,0.0,63,0.00,,---,0.01,VWS V14.00,2013-02-05 05:00:00,
2013-02-04 23:01:00,46.8,34.9,29.96,NE,37,0.0,0.0,63,0.00,,---,0.01,VWS V14.00,2013-02-05 05:01:00,
2013-02-04 23:02:00,46.8,34.9,29.96,NE,37,0.0,0.0,63,0.00,,---,0.01,VWS V14.00,2013-02-05 05:02:00,
2013-02-04 23:03:00,46.7,34.8,29.96,NE,37,0.0,0.0,63,0.00,,---,0.01,VWS V14.00,2013-02-05 05:03:00,
2013-02-04 23:04:00,46.7,34.8,29.96,NE,37,0.0,0.0,63,0.00,,---,0.01,VWS V14.00,2013-02-05 05:04:00,
2013-02-04 23:05:00,46.7,34.8,29.96,NE,37,0.0,0.0,63,0.00,,---,0.01,VWS V14.00,2013-02-05 05:05:00,
2013-02-04 23:06:00,46.7,34.8,29.96,NE,37,0.0,0.0,63,0.00,,---,0.01,VWS V14.00,2013-02-05 05:06:00,
2013-02-04 23:07:00,46.7,34.8,29.96,NE,37,0.0,0.0,63,0.00,,---,0.01,VWS V14.00,2013-02-05 05:07:00,
2013-02-04 23:08:00,46.6,34.7,29.96,NE,37,0.0,0.0,63,0.00,,---,0.01,VWS V14.00,2013-02-05 05:08:00,
2013-02-04 23:09:00,46.6,34.7,29.96,NE,37,0.0,0.0,63,0.00,,---,0.01,VWS V14.00,2013-02-05 05:09:00,
2013-02-04 23:10:00,46.6,35.1,29.96,NE,37,0.0,0.0,64,0.00,,---,0.01,VWS V14.00,2013-02-05 05:10:00,
2013-02-04 23:11:00,46.5,35.0,29.96,NE,37,0.0,0.0,64,0.00,,---,0.01,VWS V14.00,2013-02-05 05:11:00,
2013-02-04 23:12:00,46.5,35.0,29.96,NE,37,0.0,0.0,64,0.00,,---,0.01,VWS V14.00,2013-02-05 05:12:00,
2013-02-04 23:13:00,46.4,34.9,29.96,NE,37,0.0,0.0,64,0.00,,---,0.01,VWS V14.00,2013-02-05 05:13:00,
2013-02-04 23:14:00,46.4,34.9,29.96,NE,37,0.0,0.0,64,0.00,,---,0.01,VWS V14.00,2013-02-05 05:14:00,
2013-02-04 23:15:00,46.3,34.8,29.96,NE,37,0.0,0.0,64,0.00,,---,0.01,VWS V14.00,2013-02-05 05:15:00,
2013-02-04 23:16:00,46.3,34.8,29.96,NE,37,0.0,0.0,64,0.00,,---,0.01,VWS V14.00,2013-02-05 05:16:00,
2013-02-04 23:17:00,46.2,34.7,29.96,NE,37,0.0,0.0,64,0.00,,---,0.01,VWS V14.00,2013-02-05 05:17:00,
2013-02-04 23:18:00,46.2,34.7,29.96,NE,37,0.0,0.0,64,0.00,,---,0.01,VWS V14.00,2013-02-05 05:18:00,
2013-02-04 23:19:00,46.1,34.6,29.96,NE,37,0.0,0.0,64,0.00,,---,0.01,VWS V14.00,2013-02-05 05:19:00,
2013-02-04 23:20:00,46.0,34.9,29.96,NE,37,0.0,1.0,65,0.00,,---,0.01,VWS V14.00,2013-02-05 05:20:00,
2013-02-04 23:21:00,46.0,34.5,29.96,NE,37,0.0,0.0,64,0.00,,---,0.01,VWS V14.00,2013-02-05 05:21:00,
2013-02-04 23:22:00,45.9,34.8,29.96,NE,37,0.0,0.0,65,0.00,,---,0.01,VWS V14.00,2013-02-05 05:22:00,
2013-02-04 23:23:00,45.9,34.8,29.96,NE,37,0.0,0.0,65,0.00,,---,0.01,VWS V14.00,2013-02-05 05:23:00,
2013-02-04 23:24:00,45.8,34.7,29.96,NE,37,0.0,0.0,65,0.00,,---,0.01,VWS V14.00,2013-02-05 05:24:00,
2013-02-04 23:25:00,45.8,34.7,29.96,NE,37,0.0,1.0,65,0.00,,---,0.01,VWS V14.00,2013-02-05 05:25:00,
2013-02-04 23:26:00,45.7,34.6,29.96,NE,37,0.0,0.0,65,0.00,,---,0.01,VWS V14.00,2013-02-05 05:26:00,
2013-02-04 23:27:00,45.7,34.6,29.96,NE,37,0.0,0.0,65,0.00,,---,0.01,VWS V14.00,2013-02-05 05:27:00,
2013-02-04 23:28:00,45.6,34.9,29.96,NE,37,0.0,0.0,66,0.00,,---,0.01,VWS V14.00,2013-02-05 05:28:00,
2013-02-04 23:29:00,45.6,34.9,29.96,NE,37,0.0,0.0,66,0.00,,---,0.01,VWS V14.00,2013-02-05 05:29:00,
2013-02-04 23:30:00,45.6,34.9,29.95,NE,37,0.0,0.0,66,0.00,,---,0.01,VWS V14.00,2013-02-05 05:30:00,
2013-02-04 23:31:00,45.5,34.8,29.95,NE,37,0.0,0.0,66,0.00,,---,0.01,VWS V14.00,2013-02-05 05:31:00,
2013-02-04 23:32:00,45.4,34.7,29.95,NE,37,0.0,0.0,66,0.00,,---,0.01,VWS V14.00,2013-02-05 05:32:00,
2013-02-04 23:33:00,45.4,34.7,29.95,NE,37,0.0,0.0,66,0.00,,---,0.01,VWS V14.00,2013-02-05 05:33:00,
2013-02-04 23:34:00,45.4,34.7,29.95,NE,37,2.0,2.0,66,0.00,,---,0.01,VWS V14.00,2013-02-05 05:34:00,
2013-02-04 23:35:00,45.4,34.7,29.95,NE,36,2.0,6.0,66,0.00,,---,0.01,VWS V14.00,2013-02-05 05:35:00,
2013-02-04 23:36:00,45.3,34.6,29.95,NE,36,0.0,2.0,66,0.00,,---,0.01,VWS V14.00,2013-02-05 05:36:00,
2013-02-04 23:37:00,45.3,34.6,29.95,NE,36,0.0,0.0,66,0.00,,---,0.01,VWS V14.00,2013-02-05 05:37:00,
2013-02-04 23:38:00,45.3,34.6,29.95,NE,36,0.0,0.0,66,0.00,,---,0.01,VWS V14.00,2013-02-05 05:38:00,
2013-02-04 23:40:00,45.2,34.5,29.95,NE,36,0.0,0.0,66,0.00,,---,0.01,VWS V14.00,2013-02-05 05:40:00,
2013-02-04 23:41:00,45.2,34.5,29.95,NE,36,0.0,0.0,66,0.00,,---,0.01,VWS V14.00,2013-02-05 05:41:00,
2013-02-04 23:43:00,45.1,34.8,29.95,NE,36,1.0,2.0,67,0.00,,---,0.01,VWS V14.00,2013-02-05 05:43:00,
2013-02-04 23:44:00,45.1,34.8,29.95,NE,36,0.0,1.0,67,0.00,,---,0.01,VWS V14.00,2013-02-05 05:44:00,
2013-02-04 23:46:00,45.1,34.8,29.95,NE,36,0.0,0.0,67,0.00,,---,0.01,VWS V14.00,2013-02-05 05:46:00,
2013-02-04 23:49:00,45.2,34.5,29.95,NE,36,0.0,0.0,66,0.00,,---,0.01,VWS V14.00,2013-02-05 05:49:00,
2013-02-04 23:51:00,44.9,34.6,29.95,NE,36,0.0,0.0,67,0.00,,---,0.01,VWS V14.00,2013-02-05 05:51:00,
2013-02-04 23:52:00,44.9,34.6,29.95,NE,36,0.0,0.0,67,0.00,,---,0.01,VWS V14.00,2013-02-05 05:52:00,
2013-02-04 23:54:00,44.7,34.8,29.95,NE,36,0.0,0.0,68,0.00,,---,0.01,VWS V14.00,2013-02-05 05:54:00,
2013-02-04 23:55:00,45.1,34.8,29.95,NE,36,0.0,0.0,67,0.00,,---,0.01,VWS V14.00,2013-02-05 05:55:00,
2013-02-04 23:56:00,44.5,34.6,29.95,NE,36,0.0,0.0,68,0.00,,---,0.01,VWS V14.00,2013-02-05 05:56:00,
2013-02-04 23:57:00,44.5,34.6,29.95,NE,36,0.0,0.0,68,0.00,,---,0.01,VWS V14.00,2013-02-05 05:57:00,
2013-02-04 23:58:00,44.4,34.5,29.95,NE,36,0.0,0.0,68,0.00,,---,0.01,VWS V14.00,2013-02-05 05:58:00,
2013-02-04 23:59:00,44.4,34.5,29.95,NE,36,0.0,0.0,68,0.00,,---,0.01,VWS V14.00,2013-02-05 05:59:00,